EN

Hourly Weather Tolbuzino

Today, 23 April, Friday

Time Temperature Precipitation Wind Pressure Humidity
00:00 +7°C° 0 mm 4 mps 746 mmHg 85%
01:00 +7°C° 0 mm 4 mps 746 mmHg 86%
02:00 +6°C° 0 mm 4 mps 746 mmHg 86%
03:00 +7°C° 0 mm 3 mps 746 mmHg 87%
04:00 +6°C° 0 mm 4 mps 746 mmHg 87%
05:00 +6°C° 0 mm 4 mps 746 mmHg 87%
06:00 +6°C° 0 mm 4 mps 746 mmHg 86%
07:00 +8°C° 0 mm 4 mps 746 mmHg 79%
08:00 +9°C° 0 mm 5 mps 746 mmHg 71%
09:00 +12°C° 0 mm 5 mps 746 mmHg 64%
10:00 +13°C° 0 mm 6 mps 745 mmHg 58%
11:00 +14°C° 0 mm 7 mps 745 mmHg 51%
12:00 +15°C° 0 mm 7 mps 745 mmHg 45%
13:00 +15°C° 0 mm 7 mps 745 mmHg 48%
14:00 +15°C° 0 mm 7 mps 744 mmHg 52%
15:00 +14°C° 0 mm 6 mps 744 mmHg 55%
16:00 +14°C° 0.2 mm 6 mps 744 mmHg 59%
17:00 +13°C° 0.2 mm 5 mps 743 mmHg 62%
18:00 +13°C° 0.2 mm 4 mps 743 mmHg 66%
19:00 +11°C° 0.3 mm 4 mps 743 mmHg 73%
20:00 +10°C° 0.3 mm 3 mps 742 mmHg 79%
21:00 +9°C° 0.3 mm 3 mps 742 mmHg 86%
22:00 +9°C° 0.5 mm 2 mps 742 mmHg 88%
23:00 +8°C° 0.5 mm 2 mps 741 mmHg 91%

Tomorrow, 24 April, Saturday

Time Temperature Precipitation Wind Pressure Humidity
00:00 +8°C° 0.5 mm 2 mps 741 mmHg 93%
01:00 +8°C° 0.9 mm 3 mps 740 mmHg 93%
02:00 +6°C° 0.9 mm 4 mps 740 mmHg 93%
03:00 +5°C° 0.9 mm 5 mps 740 mmHg 93%
04:00 +5°C° 0.9 mm 5 mps 740 mmHg 94%
05:00 +3°C° 0.9 mm 5 mps 740 mmHg 95%
06:00 +2°C° 0.9 mm 5 mps 740 mmHg 96%
07:00 +2°C° 0.2 mm 5 mps 740 mmHg 91%
08:00 +4°C° 0.2 mm 4 mps 740 mmHg 87%
09:00 +4°C° 0.2 mm 4 mps 740 mmHg 83%
10:00 +5°C° 0.2 mm 4 mps 740 mmHg 76%
11:00 +6°C° 0.2 mm 4 mps 739 mmHg 68%
12:00 +7°C° 0.2 mm 4 mps 739 mmHg 61%
13:00 +7°C° 0.4 mm 5 mps 739 mmHg 60%
14:00 +7°C° 0.4 mm 6 mps 739 mmHg 58%
15:00 +6°C° 0.4 mm 7 mps 739 mmHg 57%
16:00 +6°C° 0.3 mm 7 mps 739 mmHg 58%
17:00 +5°C° 0.3 mm 6 mps 739 mmHg 60%
18:00 +4°C° 0.3 mm 6 mps 739 mmHg 62%
19:00 +4°C° 0.1 mm 6 mps 739 mmHg 66%
20:00 +3°C° 0.1 mm 6 mps 740 mmHg 70%
21:00 +2°C° 0.1 mm 6 mps 740 mmHg 74%
22:00 +1°C° 0.2 mm 6 mps 740 mmHg 81%
23:00 0°C° 0.2 mm 7 mps 740 mmHg 88%

Day after tomorrow, 25 April, Sunday

Time Temperature Precipitation Wind Pressure Humidity
00:00 -1°C° 0.2 mm 8 mps 740 mmHg 95%
01:00 -1°C° 0.4 mm 8 mps 740 mmHg 92%
02:00 -1°C° 0.4 mm 8 mps 741 mmHg 90%
03:00 -1°C° 0.4 mm 8 mps 741 mmHg 87%
04:00 -1°C° 0.1 mm 7 mps 742 mmHg 87%
05:00 -2°C° 0.1 mm 6 mps 742 mmHg 86%
06:00 -2°C° 0.1 mm 6 mps 742 mmHg 85%
07:00 -1°C° 0 mm 6 mps 743 mmHg 80%
08:00 +1°C° 0 mm 6 mps 743 mmHg 75%
09:00 +2°C° 0 mm 7 mps 743 mmHg 69%
10:00 +3°C° 0 mm 7 mps 743 mmHg 62%
11:00 +4°C° 0 mm 7 mps 743 mmHg 56%
12:00 +5°C° 0 mm 8 mps 743 mmHg 49%
13:00 +5°C° 0 mm 8 mps 743 mmHg 47%
14:00 +6°C° 0 mm 7 mps 743 mmHg 46%
15:00 +6°C° 0 mm 7 mps 743 mmHg 45%
16:00 +6°C° 0.1 mm 7 mps 743 mmHg 50%
17:00 +5°C° 0.1 mm 7 mps 742 mmHg 54%
18:00 +5°C° 0.1 mm 7 mps 742 mmHg 58%
19:00 +4°C° 0.2 mm 7 mps 742 mmHg 68%
20:00 +3°C° 0.2 mm 6 mps 742 mmHg 77%
21:00 +2°C° 0.2 mm 6 mps 742 mmHg 87%
22:00 +1°C° 0 mm 5 mps 742 mmHg 85%
23:00 +1°C° 0 mm 5 mps 743 mmHg 83%

26 April, Monday

Time Temperature Precipitation Wind Pressure Humidity
00:00 +1°C° 0 mm 4 mps 743 mmHg 82%
01:00 0°C° 0 mm 4 mps 743 mmHg 84%
02:00 +1°C° 0 mm 3 mps 743 mmHg 87%
03:00 0°C° 0 mm 3 mps 743 mmHg 90%
04:00 0°C° 0 mm 3 mps 743 mmHg 88%
05:00 0°C° 0 mm 3 mps 743 mmHg 87%
06:00 -1°C° 0 mm 2 mps 743 mmHg 86%
07:00 +1°C° 0 mm 3 mps 743 mmHg 78%
08:00 +2°C° 0 mm 3 mps 743 mmHg 71%
09:00 +4°C° 0 mm 4 mps 743 mmHg 63%
10:00 +5°C° 0.1 mm 4 mps 743 mmHg 58%
11:00 +5°C° 0.1 mm 4 mps 743 mmHg 53%
12:00 +6°C° 0.1 mm 4 mps 743 mmHg 49%
13:00 +7°C° 0.2 mm 4 mps 742 mmHg 47%
14:00 +7°C° 0.2 mm 4 mps 742 mmHg 46%
15:00 +7°C° 0.2 mm 4 mps 742 mmHg 44%
16:00 +7°C° 0 mm 4 mps 742 mmHg 46%
17:00 +7°C° 0 mm 4 mps 741 mmHg 48%
18:00 +6°C° 0 mm 4 mps 741 mmHg 50%
19:00 +5°C° 0 mm 3 mps 741 mmHg 55%
20:00 +5°C° 0 mm 2 mps 741 mmHg 61%
21:00 +5°C° 0 mm 1 mps 741 mmHg 66%
22:00 +5°C° 0 mm 1 mps 741 mmHg 68%
23:00 +4°C° 0 mm 1 mps 741 mmHg 69%

27 April, Tuesday

Time Temperature Precipitation Wind Pressure Humidity
00:00 +4°C° 0 mm 1 mps 741 mmHg 71%
01:00 +3°C° 0 mm 2 mps 741 mmHg 74%
02:00 +2°C° 0 mm 2 mps 741 mmHg 77%
03:00 +1°C° 0 mm 3 mps 741 mmHg 80%
04:00 +1°C° 0.8 mm 3 mps 741 mmHg 86%
05:00 +1°C° 0.8 mm 2 mps 741 mmHg 92%
06:00 +1°C° 0.8 mm 2 mps 741 mmHg 98%
07:00 +1°C° 0.3 mm 3 mps 741 mmHg 95%
08:00 +1°C° 0.3 mm 3 mps 741 mmHg 93%
09:00 +1°C° 0.3 mm 3 mps 741 mmHg 91%
10:00 +3°C° 0.1 mm 4 mps 741 mmHg 81%
11:00 +3°C° 0.1 mm 5 mps 741 mmHg 71%
12:00 +5°C° 0.1 mm 5 mps 741 mmHg 60%
13:00 +6°C° 0.2 mm 5 mps 741 mmHg 57%
14:00 +6°C° 0.2 mm 5 mps 741 mmHg 53%
15:00 +7°C° 0.2 mm 5 mps 740 mmHg 49%
16:00 +6°C° 0.3 mm 5 mps 740 mmHg 55%
17:00 +5°C° 0.3 mm 4 mps 741 mmHg 61%
18:00 +4°C° 0.3 mm 4 mps 741 mmHg 67%
19:00 +4°C° 0.1 mm 4 mps 741 mmHg 71%
20:00 +3°C° 0.1 mm 3 mps 741 mmHg 75%
21:00 +2°C° 0.1 mm 3 mps 742 mmHg 80%
22:00 +1°C° 0 mm 3 mps 742 mmHg 81%
23:00 +1°C° 0 mm 3 mps 742 mmHg 83%

28 April, Wednesday

Time Temperature Precipitation Wind Pressure Humidity
00:00 0°C° 0 mm 3 mps 742 mmHg 85%
01:00 0°C° 0 mm 3 mps 743 mmHg 86%
02:00 0°C° 0 mm 3 mps 743 mmHg 88%
03:00 -1°C° 0 mm 3 mps 743 mmHg 89%
04:00 -1°C° 0 mm 3 mps 744 mmHg 88%
05:00 -1°C° 0 mm 3 mps 744 mmHg 86%
06:00 -1°C° 0 mm 3 mps 744 mmHg 85%
07:00 +1°C° 0 mm 3 mps 744 mmHg 78%
08:00 +3°C° 0 mm 4 mps 745 mmHg 72%
09:00 +3°C° 0 mm 5 mps 745 mmHg 66%
10:00 +5°C° 0 mm 5 mps 745 mmHg 64%
11:00 +6°C° 0 mm 5 mps 745 mmHg 63%
12:00 +6°C° 0 mm 5 mps 745 mmHg 62%
13:00 +6°C° 0 mm 5 mps 745 mmHg 63%
14:00 +6°C° 0 mm 5 mps 745 mmHg 64%
15:00 +7°C° 0 mm 5 mps 745 mmHg 64%
16:00 +7°C° 0 mm 4 mps 745 mmHg 66%
17:00 +6°C° 0 mm 4 mps 745 mmHg 68%
18:00 +7°C° 0 mm 3 mps 745 mmHg 70%
19:00 +7°C° 0 mm 2 mps 745 mmHg 73%
20:00 +6°C° 0 mm 2 mps 745 mmHg 76%
21:00 +5°C° 0 mm 2 mps 745 mmHg 79%
22:00 +5°C° 0 mm 2 mps 745 mmHg 79%
23:00 +4°C° 0 mm 3 mps 745 mmHg 80%
Show more

We Need Your Consent

Meteoprog and our Service Providers may store and access personal data such as cookies, device identifiers or other similar technologies on your device and process such data to personalise content and ads, as well as provide social media features and to analyse the traffic.

  • Store and/or access information on your device

    Cookies, device identifiers or other information can be stored or accessed on your device for the purposes indicated above.

  • Personalised ads and content, ad and content measurement, audience insights, and products development

    Ads and content can be personalised based on a profile. More data can be added to better personalise ads and content. Ad and content performance can be measured. Insights about the audience who saw the ads and content can be derived. Such data can be used to develop or improve user’s experience, systems and software.

By clicking ‘I Agree’ you will allow the use of indicated cookies, device identifiers, web beacons or other similar technologies. Your settings can be changed in the browser on your device.

For certain purposes, legitimate interests may be relied on, rather than consent. You can read more about this in our Privacy and Cookie Policy.